TimeCDT,TemperatureF,Dew PointF,Humidity,Sea Level PressureIn,VisibilityMPH,Wind Direction,Wind SpeedMPH,Gust SpeedMPH,PrecipitationIn,Events,Conditions,WindDirDegrees,DateUTC
12:53 AM,60.1,55.9,86,29.96,10.0,South,6.9,-,N/A,,Clear,170,2013-03-17 05:53:00
1:53 AM,61.0,57.0,87,29.95,10.0,South,8.1,-,N/A,,Clear,180,2013-03-17 06:53:00
2:53 AM,61.0,57.0,87,29.93,10.0,SSE,5.8,-,N/A,,Clear,160,2013-03-17 07:53:00
3:53 AM,60.1,57.0,90,29.92,10.0,SSE,5.8,-,N/A,,Clear,160,2013-03-17 08:53:00
4:53 AM,55.9,55.0,97,29.92,7.0,ENE,3.5,-,N/A,,Clear,60,2013-03-17 09:53:00
5:53 AM,55.0,54.0,96,29.92,5.0,ENE,4.6,-,N/A,,Clear,60,2013-03-17 10:53:00
6:53 AM,55.9,55.0,97,29.94,5.0,Calm,Calm,-,N/A,,Clear,0,2013-03-17 11:53:00
7:12 AM,55.4,55.4,100,29.94,5.0,East,3.5,-,N/A,,Mostly Cloudy,80,2013-03-17 12:12:00
7:21 AM,55.4,55.4,100,29.94,5.0,Calm,Calm,-,N/A,,Scattered Clouds,0,2013-03-17 12:21:00
7:53 AM,57.0,55.9,96,29.95,6.0,ESE,3.5,-,N/A,,Partly Cloudy,120,2013-03-17 12:53:00
8:53 AM,59.0,57.0,93,29.94,6.0,East,4.6,-,N/A,,Clear,100,2013-03-17 13:53:00
9:53 AM,63.0,59.0,87,29.96,8.0,Calm,Calm,-,N/A,,Clear,0,2013-03-17 14:53:00
10:46 AM,69.8,62.6,78,29.96,10.0,SSE,9.2,-,N/A,,Scattered Clouds,160,2013-03-17 15:46:00
10:53 AM,70.0,62.1,76,29.96,10.0,South,11.5,-,N/A,,Scattered Clouds,170,2013-03-17 15:53:00
11:26 AM,73.4,62.6,69,29.95,10.0,South,10.4,19.6,N/A,,Mostly Cloudy,190,2013-03-17 16:26:00
11:53 AM,73.9,62.1,66,29.94,10.0,South,11.5,-,N/A,,Scattered Clouds,190,2013-03-17 16:53:00
12:53 PM,75.9,61.0,60,29.91,10.0,South,16.1,23.0,N/A,,Mostly Cloudy,180,2013-03-17 17:53:00
1:53 PM,75.9,59.0,56,29.89,10.0,South,18.4,-,N/A,,Scattered Clouds,190,2013-03-17 18:53:00
2:53 PM,78.1,57.9,50,29.86,10.0,South,16.1,23.0,N/A,,Mostly Cloudy,180,2013-03-17 19:53:00
3:53 PM,77.0,57.0,50,29.85,10.0,SSW,13.8,20.7,N/A,,Mostly Cloudy,210,2013-03-17 20:53:00
4:53 PM,77.0,55.9,48,29.83,10.0,SSW,15.0,-,N/A,,Mostly Cloudy,200,2013-03-17 21:53:00
5:53 PM,77.0,55.9,48,29.81,10.0,SSW,10.4,-,N/A,,Clear,200,2013-03-17 22:53:00
6:53 PM,73.0,60.1,64,29.81,10.0,South,12.7,-,N/A,,Partly Cloudy,180,2013-03-17 23:53:00
7:53 PM,72.0,62.1,71,29.82,10.0,South,9.2,-,N/A,,Scattered Clouds,180,2013-03-18 00:53:00
8:53 PM,70.0,64.0,81,29.82,10.0,South,10.4,-,0.00,,Mostly Cloudy,170,2013-03-18 01:53:00
9:08 PM,71.6,64.4,78,29.83,10.0,South,13.8,-,N/A,,Mostly Cloudy,180,2013-03-18 02:08:00
9:53 PM,70.0,64.9,84,29.83,10.0,SSE,9.2,-,N/A,,Mostly Cloudy,160,2013-03-18 02:53:00
10:53 PM,69.1,64.9,87,29.84,10.0,SSE,11.5,-,N/A,,Overcast,150,2013-03-18 03:53:00
11:50 PM,69.8,64.4,83,29.84,10.0,South,9.2,-,0.00,,Overcast,170,2013-03-18 04:50:00
11:53 PM,68.0,64.9,90,29.84,10.0,South,11.5,-,0.00,,Overcast,170,2013-03-18 04:53:00